Wind_Speed
4 3 4 9 10 7 4 2 5 2 6 7 10 11 7 27 27 23 25 32 35 37 32 29 25 21 17 13 10 7 6 7 8 8 9 10 11 8 7 7 8 10 10 12
7 4 7 13 6 5 4 2 5 5 3 2 1 3 7 21 32 24 21 24 34 36 35 33 30 27 23 16 12 10 7 6 8 10 11 11 13 12 9 8 7 8 10 11
4 9 11 7 4 3 3 6 5 4 2 3 1 4 6 1 9 19 19 20 31 39 40 37 38 35 28 21 13 11 9 8 8 9 11 14 12 15 11 9 8 9 10 10
4 2 5 11 7 6 4 8 4 4 3 1 3 4 6 3 6 12 20 30 29 37 41 44 43 40 33 24 13 14 11 8 7 9 10 13 12 13 12 9 11 11 11 9
8 4 5 6 5 4 2 8 4 3 3 2 4 3 7 1 4 7 21 32 31 33 36 46 47 45 34 25 16 15 14 11 8 8 10 10 12 12 12 13 12 11 10 9
3 7 3 5 4 0 8 6 6 4 3 4 3 3 5 3 4 5 7 13 23 33 38 40 42 43 38 27 22 18 18 13 9 6 7 9 11 11 12 14 13 11 10 10
6 6 7 2 4 7 7 5 3 5 5 5 2 1 8 6 8 11 10 22 23 15 26 39 40 37 37 30 21 23 21 17 11 5 3 6 7 8 8 9 13 14 14 14
2 8 2 2 3 5 2 4 5 4 2 5 3 3 5 4 9 7 7 10 16 17 18 27 35 33 27 25 3 33 26 19 14 7 4 4 6 6 7 8 9 10 10 11
4 6 4 3 4 2 3 2 5 5 2 3 3 6 9 1 5 12 7 13 14 16 17 24 30 30 34 30 10 13 28 21 14 11 10 6 6 7 8 8 9 9 10 11
6 4 4 4 2 8 2 3 3 3 1 3 5 4 5 4 2 1 5 6 12 13 16 20 24 23 27 28 21 4 18 20 14 13 12 9 7 7 8 9 9 10 10 12
4 4 7 1 4 7 2 2 6 4 4 4 2 6 5 5 2 6 4 9 14 12 13 15 18 17 12 23 28 19 20 16 17 15 15 13 10 8 10 13 13 13 13 13
3 5 3 6 6 4 2 4 5 5 4 1 3 6 3 4 5 7 1 6 10 10 14 10 12 14 10 11 19 27 22 15 15 15 16 17 15 12 12 14 14 15 16 15
5 2 3 8 7 5 1 3 4 5 3 5 5 6 3 4 5 1 3 7 8 9 10 6 9 15 17 19 21 18 18 18 15 15 17 19 16 14 13 14 14 15 17 17
6 3 5 6 5 2 4 4 4 6 3 4 5 7 4 2 4 3 2 5 9 8 9 11 14 11 9 13 14 17 18 16 14 15 18 16 16 15 14 15 15 17 17 19
4 2 3 5 4 3 4 4 3 6 3 4 5 3 5 4 4 7 5 7 10 12 12 12 13 12 7 11 10 14 14 13 13 14 12 13 13 14 15 15 17 18 19 21
4 2 0 3 3 5 3 7 6 3 1 3 2 2 8 4 5 9 7 8 10 12 13 15 14 7 9 11 12 8 10 12 12 11 10 12 13 12 14 15 16 19 21 23
2 5 3 4 4 5 5 2 2 3 3 2 2 4 4 1 2 4 4 5 6 7 8 8 8 7 1 3 3 4 8 7 7 6 9 11 12 14 15 18 21 22 22 23
5 3 2 2 3 2 5 1 1 6 5 10 4 4 3 2 1 6 13 8 7 6 3 2 5 4 5 4 1 3 3 1 3 7 11 13 15 15 17 19 20 21 22 21
4 5 2 3 3 4 1 3 1 2 1 6 5 4 7 5 3 4 11 11 7 8 3 1 5 8 8 5 4 4 1 3 6 9 8 9 11 14 19 20 19 17 17 14
5 6 4 2 2 4 5 2 3 2 2 6 3 10 6 3 1 6 13 9 9 8 3 2 6 8 8 6 5 4 2 2 5 8 10 12 14 17 16 16 15 12 12 11
4 4 3 1 2 6 3 3 1 2 6 3 13 16 14 7 17 16 19 13 14 10 5 6 8 9 7 5 4 4 3 4 6 7 10 13 14 13 12 11 8 7 10 13
2 3 1 2 1 6 2 4 4 6 9 15 17 16 15 25 22 17 22 22 23 16 11 7 9 8 8 6 5 1 4 6 8 9 11 12 12 12 7 6 6 11 15 13
2 3 3 6 5 4 7 10 8 12 15 21 22 18 18 25 18 8 14 25 23 18 13 9 10 9 7 6 7 8 10 9 10 10 9 10 6 7 7 8 12 13 10 11
3 2 2 2 4 10 11 14 16 20 21 16 14 21 12 12 12 11 17 26 24 21 13 14 14 11 8 6 5 8 8 8 8 8 7 8 8 8 7 7 10 10 10 12
4 4 4 5 9 11 19 22 23 23 21 20 19 13 17 11 11 9 21 25 21 18 17 17 14 10 6 4 6 6 8 7 6 5 7 8 9 8 5 8 10 10 11 14
8 6 5 5 7 9 12 10 16 23 18 14 9 11 11 5 2 11 22 20 17 18 20 17 12 8 6 4 6 6 5 2 3 5 6 9 10 5 6 8 7 7 11 14
Wind_Direction
82 88 281 236 200 221 169 160 263 236 214 161 220 242 220 200 211 209 208 217 220 228 235 231 231 237 242 257 260 275 268 244 238 234 222 228 230 249 270 277 315 343 351 358
15 299 272 293 171 158 161 198 254 310 40 112 250 311 311 198 212 209 217 224 227 231 232 232 230 236 239 249 255 264 287 270 252 242 235 234 234 249 267 267 292 319 328 336
156 258 330 26 25 126 210 185 228 179 87 56 341 312 330 315 222 221 227 244 237 238 237 232 232 235 236 235 246 267 288 293 261 240 238 226 235 241 259 260 284 298 311 316
224 13 354 310 304 141 240 198 161 148 108 248 32 287 289 321 299 250 240 235 238 242 237 239 234 233 232 233 229 253 259 281 276 247 240 237 246 251 264 260 282 289 303 299
255 350 311 316 266 159 272 69 56 91 121 79 357 55 274 54 274 246 252 255 253 250 253 242 239 237 231 226 226 244 243 253 274 256 248 247 247 247 253 261 276 278 288 283
265 274 237 218 338 271 153 76 54 47 59 26 282 106 286 265 238 301 286 306 308 267 251 248 245 239 228 218 226 232 235 240 259 256 247 254 256 264 259 256 275 279 295 287
349 294 285 222 10 19 51 66 5 7 1 226 28 45 242 259 242 236 319 318 323 333 263 244 239 234 227 218 230 234 237 238 246 260 268 262 267 270 272 254 277 281 293 300
103 330 341 357 178 156 70 128 138 248 252 272 6 248 269 240 329 42 29 340 337 333 299 255 244 227 224 212 224 259 250 245 245 275 296 279 293 307 303 290 286 296 293 305
167 260 309 20 58 25 170 73 164 108 16 38 261 289 314 8 28 44 14 20 347 339 308 267 245 227 226 203 230 295 252 253 260 294 303 315 322 330 337 326 313 317 308 309
210 298 233 202 34 50 129 123 41 21 351 305 294 288 241 303 189 15 22 350 329 314 297 266 241 235 232 216 223 288 283 256 260 279 292 299 313 330 339 343 336 323 322 313
133 122 282 132 182 205 344 36 56 108 126 171 275 277 212 272 220 199 265 319 324 321 319 278 253 230 238 215 220 228 262 280 256 268 294 284 287 312 323 335 335 331 324 321
169 142 223 236 301 222 160 157 135 123 240 222 153 276 18 99 118 169 268 320 340 345 353 299 231 220 266 256 232 235 251 280 263 267 289 279 279 293 311 326 331 331 326 321
180 37 39 350 351 356 355 207 129 104 88 194 149 263 134 106 120 268 305 308 332 323 337 282 247 291 280 261 257 260 263 274 265 276 290 277 280 296 310 324 326 326 325 324
114 99 148 192 212 214 304 283 140 132 123 187 229 289 306 174 246 206 308 318 311 311 302 305 299 309 305 259 262 264 253 269 257 281 286 286 286 293 301 316 318 321 325 323
96 117 195 227 251 239 245 10 171 191 168 188 257 229 283 184 255 300 309 308 320 327 308 299 293 281 294 243 246 255 255 258 249 294 293 314 301 290 301 306 314 318 319 324
6 193 96 317 305 317 317 30 333 40 147 273 188 213 224 143 157 274 299 301 332 349 358 353 351 262 253 241 243 266 262 255 249 297 304 339 349 314 306 316 319 318 321 323
101 138 104 265 345 342 10 323 28 350 6 282 192 256 118 223 232 273 297 297 314 326 9 20 17 32 138 210 256 275 271 249 286 306 336 344 333 329 327 317 314 316 315 312
133 100 108 226 18 25 246 15 190 125 32 1 357 39 94 208 252 333 320 282 270 289 316 5 63 77 98 110 239 254 273 313 326 327 327 329 319 319 316 312 310 311 313 316
149 128 118 142 185 275 20 306 31 190 302 339 342 260 229 169 148 269 221 255 248 242 234 150 100 109 126 152 181 180 186 280 288 298 312 317 319 320 317 314 320 327 329 334
73 68 112 117 152 204 238 317 303 99 282 348 353 65 27 336 2 269 274 267 227 202 177 127 124 131 142 141 151 180 216 284 298 301 306 311 315 319 322 322 330 338 339 354
3 12 112 116 201 285 269 329 217 91 242 143 133 118 117 229 217 246 268 286 224 210 175 142 131 130 131 149 171 206 238 276 307 309 310 313 324 330 330 329 336 5 12 6
132 112 131 113 84 283 7 295 193 199 187 170 165 185 226 214 239 270 275 244 208 191 166 149 148 145 153 163 217 283 339 338 331 321 318 325 329 337 357 9 20 1 356 2
357 171 197 176 224 284 291 255 233 208 211 220 231 259 274 258 237 295 209 196 197 188 182 176 181 170 175 212 247 288 330 343 334 327 336 346 19 20 21 360 353 4 27 27
319 178 164 31 244 253 263 247 244 234 241 238 275 302 308 277 293 289 201 195 191 193 195 188 187 187 194 226 276 311 327 344 339 348 8 35 40 29 5 22 33 32 35 30
206 148 170 259 274 276 264 250 255 249 252 262 292 276 307 287 263 256 196 188 188 195 192 188 187 188 210 265 307 322 328 338 334 6 31 41 21 27 33 39 47 39 40 26
197 191 166 233 263 219 269 294 280 267 269 285 295 286 281 264 252 195 181 180 180 190 189 182 184 203 239 245 291 311 318 359 19 10 44 34 22 56 47 34 40 46 25 15
Height
1545 1552 1557 1549 1547 1543 1547 1555 1557 1546 1544 1549 1550 1547 1547 1546 1548 1549 1551 1554 1553 1552 1554 1556 1558 1560 1560 1560 1560 1559 1557 1556 1556 1555 1555 1555 1555 1554 1554 1553 1552 1551 1548 1546
1549 1556 1540 1535 1537 1544 1548 1551 1555 1546 1544 1547 1549 1550 1543 1541 1539 1547 1550 1552 1552 1552 1552 1555 1556 1555 1553 1556 1558 1558 1557 1554 1554 1555 1554 1554 1554 1553 1552 1552 1550 1548 1547 1546
1553 1544 1538 1536 1541 1548 1549 1554 1551 1550 1550 1551 1551 1555 1551 1542 1544 1543 1548 1549 1546 1545 1546 1547 1548 1546 1549 1551 1555 1558 1557 1555 1554 1554 1554 1553 1553 1553 1552 1552 1550 1549 1546 1544
1546 1541 1541 1540 1540 1539 1549 1537 1541 1545 1556 1568 1556 1576 1554 1550 1547 1543 1543 1538 1537 1532 1534 1537 1538 1539 1542 1549 1552 1553 1553 1552 1552 1552 1552 1553 1552 1551 1551 1549 1549 1546 1546 1545
1547 1543 1543 1544 1537 1534 1543 1537 1543 1548 1559 1562 1562 1572 1556 1550 1546 1539 1534 1534 1532 1530 1528 1527 1528 1531 1538 1545 1549 1548 1549 1549 1547 1548 1549 1549 1549 1548 1547 1546 1546 1545 1543 1543
1542 1539 1537 1537 1532 1530 1533 1541 1551 1559 1565 1584 1568 1572 1563 1553 1540 1534 1528 1528 1528 1524 1521 1521 1523 1528 1533 1540 1543 1545 1545 1546 1545 1544 1545 1547 1547 1546 1546 1546 1545 1545 1543 1541
1546 1540 1531 1532 1537 1536 1539 1554 1585 1586 1590 1587 1565 1572 1557 1539 1534 1531 1532 1529 1523 1516 1516 1515 1515 1522 1531 1539 1541 1545 1545 1545 1546 1544 1544 1546 1546 1545 1544 1543 1543 1542 1540 1538
1563 1569 1535 1531 1534 1542 1548 1552 1582 1590 1598 1586 1565 1574 1550 1533 1534 1534 1534 1530 1523 1517 1513 1514 1516 1519 1522 1541 1547 1549 1548 1545 1547 1546 1545 1546 1547 1545 1544 1543 1542 1540 1538 1536
1564 1558 1533 1532 1532 1537 1543 1556 1549 1572 1576 1587 1576 1557 1537 1534 1537 1536 1534 1527 1523 1519 1515 1514 1514 1517 1521 1534 1537 1538 1544 1549 1551 1551 1550 1549 1548 1545 1543 1542 1541 1539 1537 1536
1542 1561 1535 1533 1533 1536 1537 1543 1561 1575 1585 1588 1578 1569 1563 1540 1540 1537 1533 1530 1526 1523 1516 1514 1513 1517 1522 1530 1534 1536 1535 1541 1545 1548 1549 1549 1549 1546 1543 1541 1540 1538 1535 1534
1537 1549 1545 1535 1541 1546 1548 1554 1563 1570 1579 1593 1595 1572 1541 1537 1537 1536 1534 1531 1528 1524 1519 1517 1518 1520 1524 1528 1531 1534 1536 1540 1544 1547 1548 1547 1546 1545 1542 1540 1538 1536 1533 1532
1534 1551 1560 1548 1536 1534 1536 1544 1554 1577 1576 1583 1585 1572 1534 1534 1534 1534 1533 1533 1530 1526 1522 1521 1523 1525 1525 1526 1530 1533 1537 1540 1544 1545 1544 1544 1545 1543 1541 1539 1537 1534 1532 1529
1533 1554 1574 1563 1549 1537 1540 1542 1547 1559 1567 1579 1583 1566 1535 1535 1537 1536 1535 1533 1532 1528 1525 1525 1526 1527 1525 1526 1529 1532 1536 1539 1542 1544 1543 1541 1541 1539 1538 1537 1535 1532 1530 1527
1529 1553 1561 1577 1559 1549 1547 1540 1546 1552 1573 1569 1567 1550 1538 1536 1535 1537 1534 1532 1531 1531 1529 1527 1525 1525 1523 1525 1528 1531 1535 1538 1541 1542 1541 1539 1538 1537 1536 1534 1532 1530 1528 1525
1532 1552 1550 1548 1545 1544 1543 1539 1542 1547 1548 1554 1547 1545 1537 1535 1536 1534 1537 1536 1532 1529 1528 1527 1525 1523 1523 1524 1527 1530 1534 1536 1540 1541 1540 1538 1536 1535 1534 1532 1530 1528 1525 1523
1535 1551 1545 1548 1543 1541 1540 1540 1541 1538 1540 1541 1540 1536 1531 1531 1533 1536 1536 1536 1533 1532 1529 1525 1522 1520 1522 1524 1528 1530 1533 1536 1540 1540 1539 1537 1534 1533 1531 1529 1527 1525 1522 1520
1539 1549 1557 1560 1548 1544 1558 1544 1541 1541 1538 1539 1540 1531 1529 1531 1535 1539 1538 1536 1535 1534 1531 1529 1525 1522 1523 1527 1529 1532 1534 1536 1539 1540 1539 1536 1534 1531 1529 1527 1524 1522 1518 1515
1542 1549 1557 1564 1555 1572 1546 1538 1537 1539 1541 1538 1533 1531 1533 1537 1538 1540 1541 1535 1536 1535 1533 1532 1528 1527 1526 1528 1532 1534 1536 1537 1537 1538 1537 1535 1533 1530 1527 1524 1521 1518 1514 1511
1533 1546 1559 1565 1570 1555 1541 1540 1540 1539 1550 1543 1541 1536 1537 1537 1535 1535 1529 1533 1535 1536 1534 1533 1530 1528 1529 1531 1533 1534 1535 1536 1536 1535 1534 1532 1530 1527 1525 1522 1518 1514 1511 1509
1536 1540 1552 1565 1564 1568 1549 1539 1539 1537 1553 1543 1542 1542 1544 1544 1546 1534 1530 1532 1534 1535 1534 1533 1531 1530 1531 1534 1535 1536 1535 1535 1535 1534 1532 1531 1528 1525 1522 1519 1515 1513 1510 1507
1551 1554 1560 1568 1563 1557 1540 1540 1540 1552 1555 1539 1538 1535 1531 1540 1532 1528 1531 1534 1535 1535 1534 1534 1533 1532 1534 1535 1535 1537 1536 1535 1534 1533 1532 1529 1525 1522 1520 1517 1515 1512 1510 1507
1553 1559 1564 1568 1565 1564 1540 1540 1543 1539 1534 1534 1531 1527 1525 1525 1527 1527 1524 1528 1533 1534 1535 1533 1533 1533 1535 1537 1538 1538 1536 1534 1533 1532 1530 1526 1523 1520 1519 1517 1515 1513 1509 1506
1557 1553 1558 1558 1555 1541 1540 1537 1534 1532 1529 1528 1529 1529 1527 1524 1523 1525 1522 1527 1533 1534 1533 1532 1533 1533 1535 1537 1538 1536 1535 1533 1533 1531 1527 1524 1523 1521 1519 1517 1514 1511 1509 1506
1549 1548 1552 1552 1542 1539 1537 1535 1532 1530 1527 1529 1531 1529 1525 1524 1523 1521 1522 1525 1530 1532 1530 1532 1533 1535 1535 1537 1537 1535 1534 1533 1532 1529 1526 1524 1523 1521 1519 1517 1514 1512 1509 1507
1546 1545 1548 1548 1538 1538 1533 1530 1527 1527 1530 1530 1530 1527 1524 1523 1522 1519 1519 1524 1527 1530 1531 1533 1535 1536 1537 1537 1535 1534 1533 1532 1531 1529 1527 1524 1523 1522 1519 1517 1514 1512 1509 1507
1540 1539 1545 1544 1532 1531 1528 1527 1527 1528 1530 1530 1527 1525 1523 1522 1521 1524 1522 1524 1527 1529 1532 1534 1535 1536 1536 1536 1535 1534 1533 1532 1531 1528 1527 1525 1524 1523 1520 1518 1515 1513 1511 1508